St. Cloud, MN

6:24 PM CDT on June 20, 2018 (GMT -0500)
Saint Cloud Regional

Weather History for KSTC - October, 2017

Change the Weather History Date:

Friday, October 6, 2017

  Actual Average Record
Temperature  
Mean Temperature 48 °F 50 °F  
Max Temperature 56 °F 62 °F 85 °F (2007)
Min Temperature 40 °F 38 °F 18 °F (1976)
Degree Days  
Heating Degree Days 17 15  
Month to date heating degree days 72 86  
Since 1 July heating degree days 251 372  
Cooling Degree Days 0 0  
Month to date cooling degree days 0 0  
Year to date cooling degree days 361 463  
Moisture  
Dew Point 49 °F    
Average Humidity 93    
Maximum Humidity 100    
Minimum Humidity 86    
Precipitation  
Precipitation 0.25 in 0.09 in 1.83 in (1982)
Month to date precipitation 3.62 0.59  
Year to date precipitation 27.48 23.63  
Snow  
Snow 0.00 in 0.00 in T in (1952)
Month to date snowfall 0.0 0.0  
Since 1 July snowfall 0.0 T  
Since 1 September snowfall 0.0 T  
Snow Depth 0.00 in    
Sea Level Pressure  
Sea Level Pressure 29.95 in    
Wind  
Wind Speed 3 mph (North)    
Max Wind Speed 14 mph    
Max Gust Speed 17 mph    
Visibility 5 miles    
Events Fog , Rain    
T = Trace of Precipitation, MM = Missing Value Source: NWS Daily Summary

Daily Weather History Graph

Daily Weather History Graph

Search for Another Location

Airport or City:

Astronomy

Oct. 06, 2017 Rise Set
Actual Time 7:21 AM CDT 6:46 PM CDT
Civil Twilight 6:51 AM CDT 7:16 PM CDT
Nautical Twilight 6:17 AM CDT 7:50 PM CDT
Astronomical Twilight 5:42 AM CDT 8:24 PM CDT
Moon 7:44 PM CDT (10/6) 8:07 AM CDT (10/6)
Length of Visible Light 12h 24m
Length of Day
11h 25m
Full, 99% of the Moon is Illuminated
Oct 6
Full
Oct 12
Last Quarter
Oct 19
New
Oct 27
First Quarter
Nov 4
Full

Hourly Weather History & Observations

Time (CDT) Temp. Windchill Dew Point Humidity Pressure Visibility Wind Dir Wind Speed Gust Speed Precip Events Conditions
12:19 AM 50.0 °F - 50.0 °F 100% 30.07 in 1.8 mi Calm Calm - N/A   Clear
12:25 AM 48.9 °F - 48.9 °F 100% 30.07 in 0.8 mi Calm Calm - N/A   Mist
12:53 AM 48.9 °F - 48.9 °F 100% 30.10 in 1.2 mi Calm Calm - N/A   Mostly Cloudy
12:58 AM 48.0 °F - 48.0 °F 100% 30.07 in 3.0 mi Calm Calm - N/A   Mostly Cloudy
1:07 AM 48.0 °F - 48.0 °F 100% 30.07 in 2.0 mi Calm Calm - N/A   Scattered Clouds
1:14 AM 46.9 °F - 46.9 °F 100% 30.07 in 1.2 mi Calm Calm - N/A   Partly Cloudy
1:39 AM 46.9 °F - 46.9 °F 100% 30.07 in 1.8 mi Calm Calm - N/A   Overcast
1:42 AM 46.9 °F - 46.9 °F 100% 30.07 in 3.0 mi Calm Calm - N/A   Overcast
1:50 AM 46.4 °F - 46.4 °F 100% 30.07 in 1.8 mi Calm Calm - N/A   Overcast
1:53 AM 46.9 °F - 46.9 °F 100% 30.11 in 1.0 mi Calm Calm - N/A   Overcast
2:22 AM 48.0 °F - 48.0 °F 100% 30.07 in 2.5 mi Calm Calm - N/A   Overcast
2:29 AM 48.0 °F - 48.0 °F 100% 30.07 in 10.0 mi Calm Calm - N/A   Overcast
2:53 AM 48.9 °F - 48.9 °F 100% 30.10 in 10.0 mi Calm Calm - N/A   Overcast
3:53 AM 48.0 °F - 48.0 °F 100% 30.08 in 10.0 mi Calm Calm - N/A   Scattered Clouds
4:20 AM 46.0 °F - 46.0 °F 100% 30.04 in 1.8 mi Calm Calm - N/A   Partly Cloudy
4:29 AM 45.0 °F - 45.0 °F 100% 30.05 in 1.0 mi Calm Calm - N/A   Mist
4:38 AM 44.1 °F 42.5 °F 44.1 °F 100% 30.05 in 2.0 mi WNW 3.5 mph - N/A   Partly Cloudy
4:49 AM 44.6 °F 42.2 °F 44.6 °F 100% 30.05 in 0.8 mi WNW 4.6 mph - N/A   Mist
4:53 AM 44.1 °F - 44.1 °F 100% 30.09 in 0.8 mi Calm Calm - N/A   Mist
4:55 AM 43.0 °F - 43.0 °F 100% 30.05 in 1.2 mi Calm Calm - N/A   Scattered Clouds
4:58 AM 44.1 °F 42.5 °F 44.1 °F 100% 30.05 in 3.0 mi NW 3.5 mph - N/A   Partly Cloudy
5:05 AM 45.0 °F - 45.0 °F 100% 30.05 in 1.8 mi Calm Calm - N/A   Partly Cloudy
5:38 AM 42.1 °F 40.2 °F 42.1 °F 100% 30.04 in 0.8 mi North 3.5 mph - N/A   Clear
5:49 AM 42.8 °F 40.1 °F 42.8 °F 100% 30.04 in 2.0 mi North 4.6 mph - N/A   Clear
6:01 AM 43.0 °F 41.3 °F 43.0 °F 100% 30.04 in 1.5 mi North 3.5 mph - N/A   Clear
6:04 AM 42.1 °F 40.2 °F 42.1 °F 100% 30.04 in 1.0 mi NNW 3.5 mph - N/A   Mist
6:12 AM 43.0 °F - 43.0 °F 100% 30.04 in 1.5 mi Calm Calm - N/A   Clear
6:16 AM 43.0 °F - 43.0 °F 100% 30.04 in 3.0 mi Calm Calm - N/A   Clear
6:23 AM 42.1 °F - 42.1 °F 100% 30.04 in 1.8 mi Calm Calm - N/A   Clear
6:37 AM 42.1 °F - 42.1 °F 100% 30.04 in 0.5 mi Calm Calm - N/A Fog Fog
6:50 AM 41.0 °F 38.0 °F 41.0 °F 100% 30.03 in 1.2 mi North 4.6 mph - N/A   Partly Cloudy
6:53 AM 42.1 °F 39.2 °F 42.1 °F 100% 30.07 in 2.0 mi North 4.6 mph - N/A   Partly Cloudy
7:04 AM 42.1 °F 40.2 °F 42.1 °F 100% 30.03 in 1.0 mi North 3.5 mph - N/A   Mist
7:07 AM 42.1 °F - 42.1 °F 100% 30.03 in 0.8 mi Calm Calm - N/A   Mist
7:18 AM 42.1 °F - 42.1 °F 100% 30.03 in 0.8 mi Calm Calm - N/A   Mist
7:39 AM 42.1 °F 39.2 °F 42.1 °F 100% 30.05 in 1.2 mi West 4.6 mph - N/A   Overcast
7:43 AM 42.8 °F 41.1 °F 42.8 °F 100% 30.05 in 3.0 mi West 3.5 mph - N/A   Overcast
7:53 AM 42.1 °F - 42.1 °F 100% 30.09 in 9.0 mi Calm Calm - N/A   Partly Cloudy
8:53 AM 48.0 °F - 46.9 °F 96% 30.08 in 10.0 mi Calm Calm - N/A   Clear
9:53 AM 50.0 °F - 48.9 °F 96% 30.06 in 10.0 mi Calm Calm - N/A   Clear
10:53 AM 52.0 °F - 51.1 °F 97% 30.06 in 10.0 mi Calm Calm - N/A   Scattered Clouds
11:02 AM 53.1 °F - 51.1 °F 93% 30.02 in 10.0 mi Calm Calm - N/A   Mostly Cloudy
11:43 AM 54.0 °F - 52.0 °F 93% 29.99 in 10.0 mi Calm Calm - N/A   Scattered Clouds
11:53 AM 55.0 °F - 53.1 °F 93% 30.01 in 10.0 mi Calm Calm - N/A   Partly Cloudy
12:53 PM 55.9 °F - 52.0 °F 87% 29.99 in 10.0 mi SE 3.5 mph - N/A   Overcast
1:53 PM 55.9 °F - 53.1 °F 90% 29.96 in 10.0 mi ESE 5.8 mph - N/A   Overcast
2:02 PM 55.9 °F - 53.1 °F 90% 29.90 in 10.0 mi East 8.1 mph - 0.00 in Rain Light Rain
2:53 PM 55.0 °F - 54.0 °F 96% 29.88 in 6.0 mi ESE 10.4 mph - 0.01 in Rain Light Rain
3:00 PM 55.0 °F - 54.0 °F 96% 29.88 in 6.0 mi Variable 3.5 mph - 0.00 in Rain Light Rain
3:53 PM 54.0 °F - 54.0 °F 100% 29.89 in 3.0 mi Calm Calm - 0.07 in Rain Rain
4:00 PM 54.0 °F - 54.0 °F 100% 29.85 in 2.5 mi NE 4.6 mph - 0.02 in Rain Rain
4:26 PM 54.0 °F - 54.0 °F 100% 29.82 in 2.5 mi NNE 8.1 mph - 0.11 in Rain Rain
4:35 PM 54.0 °F - 54.0 °F 100% 29.82 in 2.0 mi NNW 6.9 mph - 0.14 in Rain Rain
4:51 PM 53.6 °F - 53.6 °F 100% 29.82 in 4.0 mi North 12.7 mph - 0.17 in Rain Light Rain
4:53 PM 54.0 °F - 54.0 °F 100% 29.86 in 4.0 mi NNW 10.4 mph - 0.17 in Rain Light Rain
5:05 PM 54.0 °F - 54.0 °F 100% 29.80 in 9.0 mi NE 8.1 mph - 0.00 in   Overcast
5:18 PM 54.0 °F - 53.1 °F 97% 29.81 in 10.0 mi East 6.9 mph - 0.00 in   Overcast
5:43 PM 55.0 °F - 54.0 °F 96% 29.80 in 10.0 mi East 6.9 mph - 0.00 in   Overcast
5:53 PM 54.0 °F - 54.0 °F 100% 29.83 in 10.0 mi ENE 5.8 mph - 0.00 in   Overcast
6:40 PM 54.0 °F - 54.0 °F 100% 29.78 in 10.0 mi ENE 4.6 mph - N/A   Overcast
6:53 PM 54.0 °F - 54.0 °F 100% 29.81 in 9.0 mi NE 3.5 mph - 0.00 in Rain Light Rain
7:10 PM 54.0 °F - 54.0 °F 100% 29.77 in 8.0 mi NNE 3.5 mph - 0.00 in   Overcast
7:53 PM 54.0 °F - 54.0 °F 100% 29.79 in 9.0 mi North 4.6 mph - 0.00 in   Overcast
8:02 PM 54.0 °F - 54.0 °F 100% 29.75 in 9.0 mi North 4.6 mph - N/A   Overcast
8:11 PM 53.1 °F - 53.1 °F 100% 29.74 in 9.0 mi North - - N/A   Overcast
8:23 PM 54.0 °F - 54.0 °F 100% 29.75 in 10.0 mi Variable 3.5 mph - N/A   Overcast
8:33 PM 53.1 °F - 53.1 °F 100% 29.75 in 10.0 mi NNW 4.6 mph - N/A   Overcast
8:45 PM 53.1 °F - 53.1 °F 100% 29.75 in 10.0 mi NNW 3.5 mph - N/A   Overcast
8:53 PM 53.1 °F - 53.1 °F 100% 29.78 in 10.0 mi North 3.5 mph - N/A   Overcast
9:05 PM 53.1 °F - 53.1 °F 100% 29.75 in 10.0 mi NNW 4.6 mph - N/A   Overcast
9:18 PM 53.1 °F - 53.1 °F 100% 29.74 in 10.0 mi North 6.9 mph - N/A   Overcast
9:53 PM 52.0 °F - 52.0 °F 100% 29.76 in 10.0 mi North 6.9 mph - N/A   Overcast
10:42 PM 52.0 °F - 52.0 °F 100% 29.72 in 10.0 mi North 6.9 mph - N/A   Overcast
10:53 PM 52.0 °F - 52.0 °F 100% 29.75 in 10.0 mi North 5.8 mph - N/A   Overcast
11:53 PM 52.0 °F - 51.1 °F 97% 29.71 in 10.0 mi NNE 4.6 mph - N/A   Overcast